Simultaneous Nadir Overpasses (SNOs) Predictions

Prediction of SNOs between GOES-16 and AQUA Satellite Orbit:

Table of predicted SNOs for the next 14.0 days since TLE Epoch: 9/7/2018
Index Date Time (GOES-16) GOES-16 Lat,Lon AQUA Lat,Lon Distance(km) Time Diff (sec)
1 09/08/2018 18:35:48 0.01, -75.20 0.10, -74.72 54.49 80
2 09/10/2018 18:23:35 0.00, -75.20 0.76, -71.76 392.08 80
3 09/11/2018 06:44:50 -0.00, -75.20 0.33, -76.92 194.14 80
4 09/13/2018 06:29:56 -0.00, -75.22 -0.27, -73.95 144.33 80
5 09/13/2018 18:51:20 0.00, -75.22 -0.82, -79.14 445.14 80
6 09/15/2018 06:17:43 -0.00, -75.23 -0.93, -70.99 483.26 80
7 09/15/2018 18:39:06 0.01, -75.24 -0.22, -76.17 106.15 80
8 09/17/2018 18:29:33 0.01, -75.27 0.45, -73.21 233.39 80
9 09/18/2018 06:50:47 -0.01, -75.27 0.63, -78.37 352.20 80
10 09/20/2018 06:38:34 -0.01, -75.30 0.03, -75.40 12.00 80




NCC Satellite Simultaneous Nadir Overpasses (SNOs) Prediction Service
